Wind_Speed
6 6 6 7 7 7 7 7 7 8 8 8 9 9 9 9 9 9 9 9 10 10 11 11 11 11 11 12 12 12 13 13 13 14 16 14 11 12 11 10 9 6 6 4 2 2 2 3 4 4 4 4 3 3 4 6 6 3 2 2 3 3 4 5 7 4 3 3 4 5 10 8 5 8 8 7 10 13 12 15 16 17 21 22 20 17 14 12
6 6 6 6 6 6 6 7 7 7 7 8 8 8 8 8 9 9 9 9 10 10 11 11 12 12 12 13 13 14 14 14 14 15 14 11 11 12 13 12 10 8 7 6 4 3 3 4 5 5 5 5 3 4 4 6 8 6 3 2 5 5 5 5 6 5 2 5 6 6 10 10 9 8 5 5 8 11 10 13 16 18 21 24 24 22 20 18
7 7 6 6 6 6 6 6 6 6 7 7 7 7 7 8 8 8 9 9 10 10 11 11 12 12 13 13 14 15 15 16 15 9 3 5 9 8 9 12 12 10 9 8 6 4 5 4 4 4 6 7 5 5 4 5 7 7 4 2 7 7 6 10 12 12 9 8 7 6 8 9 12 11 6 6 9 9 10 14 14 19 26 26 26 24 23 22
8 8 8 7 7 7 7 7 7 7 6 7 7 7 7 8 8 8 9 9 10 10 11 11 12 13 13 14 15 15 16 16 8 1 3 8 14 11 6 7 10 11 10 10 8 6 6 5 4 4 6 7 6 7 6 8 7 5 6 5 7 4 4 14 16 15 12 9 8 8 6 7 12 11 10 8 6 8 14 21 21 22 27 27 27 27 25 25
10 10 9 9 9 8 8 8 8 8 7 8 8 8 8 8 9 9 9 9 10 10 11 12 13 14 14 15 15 15 15 8 2 3 8 15 15 11 7 5 7 10 12 11 10 9 8 6 5 4 5 5 5 4 5 12 10 4 8 13 12 6 4 16 18 15 13 10 11 10 6 9 11 10 15 13 8 13 19 22 23 23 23 23 24 26 27 28
11 11 11 11 11 11 11 10 10 10 10 10 10 10 10 10 11 11 11 11 11 12 12 12 13 14 14 15 15 16 10 3 8 13 14 13 11 10 8 7 6 8 11 12 12 11 9 8 7 6 5 4 5 6 6 11 12 5 8 12 17 14 11 21 23 18 17 13 12 11 10 12 9 10 17 18 22 30 29 25 23 22 20 18 20 24 28 29
12 13 13 13 13 13 13 13 13 13 12 12 12 12 12 13 13 13 13 13 14 14 14 14 14 14 15 15 16 15 10 10 15 14 11 10 10 10 9 9 8 8 11 12 14 12 12 10 9 8 3 3 4 7 8 9 10 9 6 7 16 19 18 24 24 21 20 16 17 14 12 12 10 12 14 22 36 38 33 30 27 25 21 19 20 24 27 28
13 13 14 14 14 14 14 15 15 15 15 15 14 14 14 15 15 15 15 15 16 16 16 16 15 15 15 16 16 14 14 14 14 10 11 12 12 12 11 11 10 9 11 13 14 14 14 12 12 9 3 5 6 6 8 7 6 9 8 9 12 16 19 23 21 22 22 20 19 14 14 17 18 15 15 33 48 41 32 32 30 27 25 24 26 27 27 29
15 15 15 15 15 16 16 16 16 16 17 16 16 17 16 17 16 16 16 16 17 17 17 17 16 17 15 16 15 13 15 15 11 11 13 15 16 15 13 12 11 10 11 14 15 15 15 14 14 11 7 7 7 7 5 4 4 7 10 11 11 15 20 22 21 24 22 20 17 9 15 21 19 13 18 42 48 35 29 26 26 28 29 30 31 31 31 32
16 16 16 16 17 17 18 18 18 18 19 19 18 18 18 19 19 18 18 18 18 18 18 17 17 17 15 16 11 8 15 16 13 16 17 18 18 16 16 14 12 11 11 14 16 17 17 14 13 11 10 8 6 7 5 4 5 6 8 11 14 17 22 22 20 26 22 19 18 11 15 22 16 3 14 41 37 20 18 16 17 21 27 32 33 35 35 36
15 15 15 16 17 17 18 19 20 20 20 20 20 20 20 21 20 20 20 20 19 19 19 19 18 17 16 17 13 13 19 21 18 21 21 20 19 18 18 15 14 12 12 14 16 18 18 15 12 8 7 6 5 6 6 8 7 8 8 11 16 14 20 23 18 23 16 13 19 13 12 18 8 4 19 42 35 21 19 18 18 19 24 27 29 33 35 37
14 15 15 16 16 17 18 19 20 21 21 21 21 21 21 22 22 21 21 21 21 20 20 19 18 18 16 18 22 22 23 23 22 22 21 21 21 20 20 17 16 13 13 15 16 18 17 16 15 12 9 5 3 3 4 6 5 9 6 7 14 8 15 24 17 19 11 7 14 6 4 12 5 12 33 43 37 29 26 27 28 27 29 29 29 30 32 36
16 16 17 17 17 18 18 19 20 21 22 22 22 22 22 22 22 22 22 21 21 20 20 19 19 19 15 19 27 27 23 24 24 23 22 23 23 23 22 20 17 15 15 16 17 18 17 17 16 15 14 9 5 4 6 7 7 9 4 1 9 7 10 16 7 9 8 6 9 7 1 11 8 21 37 37 34 30 26 31 34 33 33 32 32 33 33 35
16 17 17 18 18 19 20 20 21 22 23 23 23 22 22 22 22 23 22 21 21 20 20 18 18 17 14 20 29 27 24 25 26 25 23 23 22 23 23 20 18 17 16 16 17 18 17 15 14 14 14 13 11 10 8 7 5 5 2 1 3 3 8 10 1 4 4 5 11 11 3 11 11 22 34 31 27 24 22 30 34 32 34 33 33 34 35 36
15 15 16 17 18 18 19 21 22 23 24 25 24 24 23 22 23 23 21 21 21 20 20 17 17 15 12 20 27 24 24 25 25 24 21 20 21 21 21 19 17 17 16 16 17 17 16 13 12 11 10 12 11 7 4 4 4 1 2 4 2 4 7 13 7 8 8 6 11 11 3 10 13 22 34 30 23 21 22 29 32 31 32 33 34 34 35 36
13 14 15 16 16 17 18 20 21 23 24 25 25 25 24 24 24 23 22 21 20 19 18 15 16 13 8 15 21 21 24 26 25 23 20 19 20 20 19 17 16 16 16 15 15 15 14 12 10 9 7 7 5 2 3 4 5 2 3 6 5 5 4 8 10 8 14 6 6 9 6 7 10 17 27 23 19 19 20 27 31 30 32 32 35 36 37 36
11 12 13 14 15 16 17 19 20 22 23 24 25 25 24 24 24 23 22 21 19 17 15 12 11 10 10 14 19 23 25 24 24 21 20 20 19 19 18 17 15 15 13 13 14 12 11 10 8 5 5 4 2 5 2 3 6 4 2 5 6 7 4 4 9 6 9 7 6 10 9 12 14 15 20 19 17 14 15 24 29 29 30 31 35 37 38 38
10 11 11 12 13 14 16 17 19 21 22 23 24 24 24 23 22 22 20 20 16 11 9 10 8 3 9 15 16 19 18 16 15 14 16 17 18 18 17 16 14 12 11 9 10 10 10 8 6 2 2 4 3 6 4 8 9 6 5 5 5 6 6 7 9 4 3 5 7 8 9 16 18 17 21 28 29 20 18 26 28 29 32 34 36 37 39 40
10 11 11 12 12 13 15 16 18 20 22 22 21 22 22 20 17 16 15 14 11 6 5 11 13 5 6 10 10 13 14 14 13 13 15 17 18 17 16 14 12 13 10 5 6 11 12 4 4 3 3 9 9 9 12 14 12 10 9 6 6 7 6 9 13 8 3 6 8 9 13 16 17 18 20 30 35 29 28 29 27 31 35 39 40 40 41 43
10 11 11 11 12 13 14 16 17 19 21 21 20 19 15 11 7 7 8 11 14 13 12 14 18 16 15 13 13 14 16 17 18 18 18 18 17 16 16 14 11 12 8 5 5 9 12 6 3 7 12 15 13 12 16 15 10 9 7 6 8 8 9 11 15 10 4 5 8 12 17 17 18 19 18 25 30 25 25 25 27 32 36 39 41 42 45 47
11 11 11 11 11 12 13 14 16 17 18 19 20 16 9 5 4 6 9 12 18 22 24 22 21 24 25 22 21 19 17 17 19 22 18 17 17 14 15 14 8 6 7 7 4 3 8 7 8 15 18 15 10 11 14 11 8 8 6 8 9 8 12 14 13 12 5 5 9 11 16 18 17 18 17 19 18 18 23 22 26 34 35 37 39 43 48 49
12 12 12 12 11 12 12 14 15 14 16 17 17 13 8 7 7 9 10 12 20 24 25 27 27 31 33 30 30 27 21 17 20 24 20 19 20 15 13 12 7 4 5 6 2 1 4 6 13 19 14 7 6 6 7 9 8 7 6 7 8 7 11 12 10 13 5 4 8 10 14 16 14 16 17 16 15 21 31 30 33 36 32 35 38 42 47 48
14 13 13 13 12 12 13 14 13 13 16 15 13 12 10 11 9 10 10 7 16 22 24 27 30 33 35 34 33 32 28 23 21 24 25 24 23 19 13 11 6 3 6 7 8 7 6 7 16 18 8 6 9 5 4 6 6 7 7 6 8 8 8 8 6 8 4 3 7 9 12 12 11 13 14 20 26 27 33 36 39 40 35 38 43 43 45 46
14 14 14 14 13 13 14 14 12 13 16 13 13 13 12 12 10 11 10 6 9 15 21 26 26 29 32 31 28 30 32 26 19 20 26 29 23 15 12 10 6 3 6 12 14 13 10 8 11 11 8 9 11 8 5 6 7 8 9 8 11 12 12 11 6 6 6 5 5 7 13 11 10 15 13 17 25 24 28 31 33 40 41 43 45 45 47 50
14 14 15 15 13 13 15 14 11 14 14 12 13 13 12 11 10 11 9 5 5 8 12 15 17 20 25 24 21 22 21 20 20 20 22 28 26 13 6 9 7 6 11 12 10 12 12 10 7 7 7 10 10 8 7 8 9 9 8 13 18 16 13 13 9 8 6 6 4 2 9 9 7 14 13 11 12 14 18 19 24 36 42 41 42 46 51 53
14 14 15 15 14 14 15 13 12 15 12 11 14 14 11 9 8 10 6 2 4 5 3 5 8 8 10 14 16 13 6 10 20 24 21 24 29 20 6 6 7 7 9 8 5 5 7 9 9 8 9 10 8 7 8 11 9 9 6 13 17 14 10 12 9 6 3 5 4 2 2 9 6 7 10 10 9 11 12 11 17 28 35 37 41 46 50 50
15 15 14 15 15 14 14 13 13 14 11 11 14 13 10 7 6 7 5 3 4 3 4 5 6 3 4 7 14 13 2 4 8 15 21 21 26 23 10 5 5 4 5 4 3 4 4 6 8 9 9 7 6 9 10 11 8 8 4 8 11 9 9 8 6 5 4 4 4 2 4 8 14 7 10 12 11 10 12 12 15 22 30 36 39 43 45 46
18 16 14 15 15 14 14 13 13 12 10 10 12 10 7 4 3 5 4 3 4 3 3 4 5 4 3 8 19 14 1 0 2 6 15 19 20 17 10 8 6 3 5 5 5 5 4 6 9 10 7 5 9 10 8 12 8 7 3 6 7 6 5 4 4 5 2 4 4 4 5 3 14 8 8 9 9 8 13 16 16 18 26 33 37 42 43 44
19 18 16 15 15 15 14 13 12 10 9 9 10 8 3 1 2 5 3 3 3 2 2 3 4 3 1 8 16 12 2 2 1 3 8 12 16 10 4 7 5 3 4 5 8 6 1 3 7 9 7 7 10 6 7 13 9 4 6 5 4 3 3 5 3 1 2 5 6 6 6 3 14 9 5 4 5 8 12 14 15 16 22 29 35 41 43 42
18 19 18 16 16 17 16 14 11 9 7 5 6 4 1 2 2 3 3 4 1 1 1 2 2 1 2 4 5 7 4 2 2 5 5 6 11 7 0 1 3 3 4 4 7 8 2 2 2 6 7 6 4 1 3 8 6 4 6 5 6 5 5 4 2 4 2 8 6 10 12 7 9 6 5 4 4 8 9 9 11 13 18 27 34 39 39 37
19 20 20 20 19 19 18 16 12 8 6 5 4 2 2 2 4 2 7 2 1 1 1 1 1 2 3 3 2 3 2 3 0 6 3 2 4 3 1 0 1 1 3 5 7 7 3 1 2 4 5 5 6 3 2 2 3 5 4 4 3 4 4 5 4 4 1 9 6 12 13 10 10 6 2 5 6 5 7 8 10 11 16 27 32 33 32 31
20 20 21 22 21 20 20 18 13 9 7 5 3 1 1 1 1 6 6 3 2 3 1 1 1 2 2 2 1 3 1 2 2 5 4 2 3 3 3 5 4 1 4 5 4 5 4 6 5 2 4 7 5 2 3 5 3 5 4 5 1 4 3 3 4 1 4 9 5 8 8 7 12 7 3 10 10 7 8 10 13 12 15 24 28 28 27 27
20 19 20 21 21 21 21 19 14 10 8 6 4 2 3 1 4 5 3 1 2 2 2 1 0 2 3 2 3 4 2 2 4 3 2 2 2 3 4 4 6 2 4 4 2 3 4 5 4 3 4 9 10 5 3 3 4 7 5 6 5 3 2 3 4 3 5 7 4 4 6 5 8 4 8 15 15 13 12 15 21 21 21 25 26 27 27 27
21 20 20 20 21 21 20 18 14 11 9 7 6 4 3 5 6 0 2 4 3 3 1 2 2 1 3 3 5 3 2 4 4 4 2 2 1 3 4 5 6 3 1 2 2 1 4 8 5 7 4 9 13 12 8 4 4 7 5 6 6 5 4 4 5 6 6 5 4 1 5 5 4 3 9 12 10 10 13 20 26 27 28 28 27 30 32 32
23 22 21 20 20 19 18 18 16 14 13 11 8 3 4 8 6 1 3 4 3 4 4 3 3 0 3 4 4 4 6 6 2 5 3 3 3 4 4 5 8 6 3 3 3 3 4 10 7 6 3 11 13 10 7 7 2 4 4 4 4 5 6 4 7 7 2 3 4 3 5 6 4 6 8 8 8 9 12 16 17 20 28 30 30 35 37 38
24 23 22 22 22 19 18 19 17 17 18 15 7 3 9 8 4 3 3 3 2 1 3 5 1 2 4 3 3 4 5 4 1 2 3 3 3 5 4 4 9 11 8 6 3 3 6 8 3 3 1 6 8 5 6 5 3 2 4 4 3 3 6 5 7 3 2 5 6 3 6 6 5 9 9 8 11 11 9 9 8 15 26 29 31 38 41 42
24 24 24 26 24 18 16 17 17 21 22 15 5 7 7 6 6 6 3 2 2 2 1 4 3 4 3 2 3 4 1 2 2 3 2 2 2 4 5 5 8 14 16 12 5 4 7 8 4 5 4 4 2 2 1 1 4 6 4 6 2 2 2 3 2 2 2 8 7 5 11 9 6 8 4 1 4 8 8 9 10 16 22 23 28 36 40 41
24 24 27 30 27 20 18 17 18 25 21 11 8 11 5 4 7 8 7 4 1 0 2 5 4 3 4 5 5 4 2 2 3 3 3 2 3 5 5 4 6 12 18 17 7 3 4 7 6 3 3 1 3 2 2 3 1 4 3 2 3 1 3 3 3 3 6 8 7 11 16 11 8 10 6 4 7 10 11 10 10 12 13 15 24 34 39 40
20 18 21 23 19 15 17 18 23 27 16 5 9 10 4 5 7 9 12 9 3 2 4 7 6 4 6 7 7 4 4 5 3 2 3 3 4 4 4 2 2 3 8 7 4 4 1 4 6 1 2 2 3 1 4 2 2 2 1 1 1 2 4 3 3 3 5 9 8 11 14 10 9 7 6 8 10 11 11 8 7 9 12 18 27 33 35 35
11 9 12 10 7 8 14 20 26 23 9 4 9 8 3 4 5 9 15 12 6 5 5 6 7 7 8 9 9 5 4 6 6 4 4 4 4 4 2 1 1 2 3 3 3 3 3 3 6 2 3 2 1 3 5 5 3 2 2 3 3 2 1 1 2 2 4 8 8 9 10 10 8 3 6 9 8 9 9 6 6 8 12 20 24 27 31 31
6 6 9 9 9 13 19 21 17 10 4 5 8 8 7 6 5 7 14 16 12 10 7 4 6 7 7 9 9 6 4 4 6 5 4 4 6 4 1 4 5 2 4 3 1 2 1 3 5 4 4 4 3 3 6 7 7 6 6 7 7 7 4 4 6 5 4 6 7 9 9 10 8 2 3 6 4 4 5 4 5 9 12 16 20 24 28 28
8 6 7 7 11 19 22 15 7 5 5 6 7 7 7 7 7 7 10 13 11 8 6 4 4 5 5 6 6 4 4 3 5 5 4 5 7 5 4 5 4 2 1 1 3 3 4 1 4 6 6 7 11 9 5 8 8 5 4 5 6 6 5 7 10 7 5 5 6 8 9 9 8 4 3 5 4 5 7 5 5 11 16 18 21 26 27 26
10 12 10 7 11 22 20 7 5 7 4 5 8 7 6 5 4 5 7 9 8 5 4 4 6 8 7 7 7 5 4 5 7 7 6 6 7 12 17 21 18 10 4 2 2 2 3 2 3 5 5 6 12 14 7 3 3 3 4 5 6 6 7 9 8 4 5 6 6 9 10 7 7 8 7 7 6 7 10 8 6 11 18 18 18 22 24 24
9 15 17 12 13 21 16 4 5 8 6 7 6 6 9 7 5 8 7 6 7 5 4 5 7 9 8 6 7 6 5 6 8 10 9 5 7 17 26 29 23 12 6 6 6 5 4 2 2 4 6 6 6 9 8 3 3 3 4 6 9 9 8 7 4 1 5 9 10 11 11 6 7 11 11 12 12 9 9 11 12 14 18 16 15 20 24 25
6 10 15 16 17 20 16 10 8 5 5 9 8 8 10 7 9 17 14 8 9 7 4 5 5 6 6 5 6 8 9 9 8 7 8 6 6 12 21 28 25 15 13 16 13 9 5 4 5 5 9 9 8 8 6 3 2 3 4 7 11 14 14 10 5 5 8 11 12 12 11 9 10 14 18 22 22 17 15 17 18 19 21 20 20 25 29 31
4 5 6 9 15 21 23 22 16 6 3 6 7 8 12 10 10 15 13 9 13 13 8 6 6 4 4 6 8 10 11 11 10 6 5 5 4 5 13 22 22 20 22 21 15 9 2 3 9 12 13 12 13 13 7 3 4 4 5 9 10 11 13 10 7 9 10 10 12 12 13 15 14 15 21 25 24 21 19 17 18 23 26 24 24 27 31 35
4 4 2 2 8 15 19 18 14 6 2 3 3 3 10 13 8 8 9 8 10 13 9 7 10 9 8 10 11 11 12 12 12 11 10 9 6 6 10 14 15 20 22 15 12 9 1 4 12 16 18 18 17 19 15 10 12 12 11 12 11 9 10 9 10 12 10 10 12 12 15 17 16 16 20 23 25 24 20 16 18 25 28 27 27 30 32 37
6 5 4 2 2 5 7 5 2 2 2 1 2 3 5 9 7 5 6 4 5 7 6 5 11 12 10 8 7 8 10 11 11 10 8 6 6 8 8 8 10 15 14 8 9 8 3 8 13 15 18 19 18 20 20 18 18 18 17 18 18 17 16 15 16 16 14 13 14 14 16 18 16 15 18 21 23 23 23 25 29 32 33 33 33 34 34 37
7 6 7 5 3 4 4 5 5 3 2 2 3 2 2 5 6 3 2 3 3 3 5 4 3 3 4 4 3 4 5 4 5 4 4 6 8 6 6 7 7 7 4 3 5 6 4 7 12 15 18 19 19 21 21 21 20 19 20 22 23 23 23 22 22 21 20 20 19 19 21 21 17 16 20 24 28 29 32 38 40 37 37 37 38 37 37 36
7 6 5 6 7 6 5 6 5 3 3 4 5 4 3 4 4 2 2 3 3 3 4 2 6 8 6 4 3 3 3 2 1 3 5 8 8 4 3 5 6 10 9 4 3 4 6 7 11 14 14 15 19 21 20 21 22 22 24 24 24 25 25 24 22 20 20 22 24 24 24 20 17 20 23 28 33 32 29 31 34 38 43 44 38 30 23 22
12 10 7 6 6 4 2 2 2 2 3 4 3 2 3 5 4 4 4 6 7 2 2 4 7 8 6 8 7 3 3 1 3 7 7 6 9 9 6 6 7 11 9 6 4 3 4 4 6 9 9 9 13 18 20 21 22 24 24 24 25 25 23 21 21 19 19 21 22 22 19 16 17 21 22 22 24 23 20 23 32 40 41 32 22 21 25 27
12 11 9 6 5 5 4 1 0 3 3 1 2 2 5 3 4 6 4 6 6 3 5 8 8 7 6 9 9 6 8 11 13 16 16 15 18 19 17 16 14 10 7 5 5 4 3 3 4 6 7 7 10 16 18 17 16 16 17 23 27 26 23 20 18 18 20 19 18 17 15 11 10 11 12 13 13 13 15 18 19 21 23 24 24 25 26 28
Wind_Direction
337 342 344 348 352 354 359 2 5 8 10 12 14 16 15 16 17 16 16 16 14 9 6 3 359 353 347 338 331 321 314 310 306 300 297 300 287 274 270 272 278 282 288 289 298 267 213 167 192 211 222 235 248 248 229 224 214 196 122 156 243 205 206 203 192 213 177 254 276 233 228 211 245 260 243 256 246 241 240 231 226 223 227 234 241 244 247 237
328 331 333 339 341 343 348 350 355 358 2 4 8 10 10 13 11 12 12 11 10 8 7 4 1 358 353 348 341 332 324 316 308 302 303 303 284 269 260 262 267 272 278 276 281 266 222 178 184 207 227 238 245 237 221 214 202 191 141 161 232 206 217 220 211 253 279 274 273 252 242 221 239 262 244 248 247 237 238 240 229 227 232 236 241 242 244 241
318 320 322 327 327 331 333 334 342 343 350 352 354 357 359 1 0 3 2 1 1 360 0 358 356 353 351 349 344 339 332 323 315 310 337 6 341 312 272 258 255 259 266 264 266 263 250 223 204 217 231 237 233 227 214 195 201 208 188 216 245 218 243 267 263 273 284 280 277 270 253 230 246 258 239 235 256 249 230 237 227 227 238 238 240 241 241 239
311 312 312 315 316 317 317 320 324 326 332 333 337 339 340 343 344 345 345 347 346 345 347 347 346 344 344 343 343 341 335 329 319 96 88 355 347 342 321 273 252 248 250 255 255 249 251 237 235 238 224 232 229 226 219 203 206 200 182 210 241 203 246 267 267 276 284 282 276 275 267 256 264 257 238 235 269 265 236 241 241 243 253 247 241 243 240 238
308 307 307 309 309 309 308 309 309 311 314 315 320 320 323 326 325 328 329 330 331 332 334 334 335 334 334 335 335 334 339 344 346 354 325 324 332 335 338 310 263 244 241 247 248 242 241 233 230 225 217 234 216 207 231 216 205 193 217 229 242 227 247 270 275 283 285 283 278 277 275 276 277 255 243 231 229 256 254 258 259 260 267 259 250 247 242 239
305 305 306 306 306 306 304 303 303 304 304 306 309 309 311 311 313 317 315 318 319 320 323 325 327 326 327 328 326 325 329 310 310 324 321 325 334 335 340 326 293 259 245 241 243 241 239 232 222 216 212 237 212 201 242 229 208 227 250 239 250 248 248 269 275 279 283 281 273 272 274 276 277 271 261 238 238 259 268 271 271 270 270 263 256 248 242 240
302 303 303 304 304 303 302 301 301 300 301 301 302 303 304 304 306 307 309 311 310 313 316 317 320 321 322 321 319 315 297 283 305 315 318 330 332 332 337 327 312 277 256 243 241 238 237 230 222 226 214 252 237 216 249 252 214 224 260 251 260 258 253 267 273 276 280 278 273 274 274 270 262 275 282 262 260 267 271 269 268 269 264 253 249 246 245 245
299 300 300 301 302 301 300 300 299 298 298 297 298 299 298 299 299 300 302 303 304 306 307 310 313 315 318 317 316 307 288 293 307 306 309 319 318 319 319 315 312 288 267 251 244 240 241 234 227 230 219 241 242 233 260 280 226 212 249 260 264 264 262 271 278 279 280 281 280 276 264 261 261 274 283 274 275 277 274 271 266 261 255 248 248 249 248 248
296 298 298 298 298 298 297 297 297 296 295 295 295 295 295 296 295 295 296 296 299 299 300 304 305 308 312 310 311 301 289 299 308 301 306 309 307 307 301 301 301 289 272 254 245 240 238 236 236 234 237 250 247 251 254 266 241 213 241 263 271 275 276 280 282 280 282 283 282 268 263 268 270 280 279 275 279 285 281 276 269 257 249 247 248 250 250 250
295 296 296 297 296 296 295 295 294 293 293 293 292 293 293 292 293 293 292 293 293 293 295 296 297 301 302 299 296 280 285 296 302 301 303 302 300 298 292 289 286 282 269 254 244 240 240 240 242 234 245 261 249 249 230 216 254 260 271 280 278 281 285 284 279 279 281 282 274 247 262 275 271 260 270 275 281 289 287 282 273 257 249 248 248 250 251 252
296 296 296 296 296 296 295 294 293 291 291 290 290 291 290 290 290 290 289 290 289 289 289 289 292 291 291 289 266 256 284 294 296 297 297 296 294 290 286 280 277 274 263 255 246 244 244 239 237 226 239 261 253 260 248 241 263 285 303 302 287 293 295 283 273 276 277 281 270 238 255 277 266 176 249 269 276 276 279 281 274 262 257 255 250 251 251 252
298 298 298 297 297 296 295 294 292 292 291 290 291 290 290 289 288 288 288 287 287 286 285 285 285 283 285 279 264 269 288 291 290 291 289 289 288 284 280 273 271 268 260 256 249 247 243 236 232 226 234 246 276 299 261 263 296 298 314 312 293 321 304 281 270 271 258 259 267 213 265 279 226 223 250 266 273 271 274 275 272 268 265 262 257 254 253 255
301 301 301 300 301 300 298 296 294 293 292 291 291 290 290 289 289 288 287 287 287 285 284 281 278 277 273 268 273 281 288 287 286 285 284 283 281 278 274 271 268 264 259 255 249 246 240 235 231 228 239 244 256 272 270 294 314 300 313 298 294 335 301 277 267 257 237 235 238 156 239 272 241 245 256 269 273 268 272 274 275 273 269 267 262 257 255 257
304 303 304 303 304 304 303 301 298 296 295 293 292 291 291 290 289 288 287 287 286 284 284 281 274 268 255 263 279 284 282 283 281 280 281 278 274 272 270 269 268 265 261 254 248 243 237 234 230 231 242 244 253 270 289 314 315 295 303 253 287 300 273 279 1 155 226 246 195 162 216 260 261 262 265 272 271 266 266 271 277 275 272 270 266 262 259 258
305 305 306 306 306 306 305 303 300 299 297 296 295 294 293 291 289 288 288 286 283 283 283 277 268 259 249 266 277 280 279 278 278 281 279 271 267 266 267 266 265 262 257 250 244 239 235 228 223 228 241 249 257 273 317 335 330 349 253 274 270 213 264 294 297 185 214 247 173 165 227 255 260 266 269 274 269 261 256 262 270 271 271 271 269 267 263 262
310 311 309 310 310 310 309 306 302 300 298 297 296 296 295 293 290 288 287 284 283 281 277 271 262 249 244 272 275 274 276 276 279 280 270 264 261 259 261 262 259 253 246 242 239 236 232 224 221 228 237 253 240 147 32 340 316 336 206 248 255 229 257 304 299 217 205 212 172 198 228 255 262 260 267 272 265 254 245 255 262 265 269 269 269 269 266 265
318 318 318 319 317 316 315 310 306 303 299 298 297 296 296 295 292 289 286 283 280 273 266 256 249 242 242 263 270 272 278 280 280 275 265 262 257 255 255 252 248 242 234 229 231 224 214 205 202 223 239 245 164 113 56 282 265 281 210 236 249 239 232 267 296 271 196 183 207 229 228 244 256 258 263 262 259 252 236 251 260 263 266 265 267 268 267 266
327 328 329 328 327 327 323 317 313 308 305 304 303 300 299 299 296 291 285 279 272 264 253 221 195 223 251 249 260 274 284 286 280 270 262 255 246 247 245 243 239 224 210 211 215 193 187 191 169 171 276 242 180 137 188 230 231 233 214 229 252 241 234 243 269 274 169 203 222 231 239 245 256 264 265 260 261 263 252 254 260 263 266 266 266 266 267 267
333 334 336 337 339 338 333 328 324 319 315 312 309 307 304 302 297 288 276 263 245 226 234 206 189 200 250 244 262 278 281 278 273 263 252 241 233 234 229 230 223 199 183 179 198 181 174 154 111 145 236 231 215 182 206 227 222 222 226 235 251 248 244 244 255 248 202 252 238 232 248 249 255 260 260 261 262 263 262 261 261 262 264 265 265 265 265 264
333 336 337 339 343 343 340 337 333 329 325 319 316 317 315 311 304 290 269 246 236 238 250 230 216 232 247 254 266 272 269 265 263 258 248 234 225 221 215 210 197 191 183 156 183 187 175 160 147 193 217 225 219 201 216 232 233 240 252 260 255 255 262 254 262 265 199 231 242 232 249 253 255 258 256 258 261 263 262 262 260 259 259 260 262 263 263 262
330 332 334 336 341 345 344 342 341 338 337 333 329 333 341 340 320 301 295 273 261 256 256 252 241 243 250 253 254 256 261 261 256 250 242 228 217 210 206 195 172 194 198 162 156 171 171 183 206 213 220 226 223 211 223 238 246 251 251 264 263 252 263 258 264 276 216 204 252 240 254 258 252 258 259 254 255 258 256 256 258 257 257 258 259 261 262 263
323 326 332 333 338 344 344 347 349 344 345 342 337 345 354 339 313 295 303 289 276 269 261 260 253 248 252 253 251 250 253 257 250 240 230 218 209 204 197 183 180 193 163 155 178 213 192 214 225 224 228 245 249 219 221 238 237 243 241 259 266 253 272 269 255 267 241 183 257 252 255 259 251 254 259 255 248 250 255 254 256 258 257 257 257 258 261 263
318 323 327 326 335 343 343 348 352 348 348 349 347 351 347 336 325 312 311 287 281 279 266 260 253 250 252 253 250 243 239 242 242 236 229 216 202 202 196 176 184 165 135 179 208 217 219 228 231 231 230 241 254 235 204 250 240 226 227 245 261 250 264 268 246 268 261 198 260 269 264 263 258 257 256 254 252 253 257 256 258 260 257 256 257 259 261 262
313 317 319 323 333 342 344 346 350 350 348 356 357 348 341 334 333 333 319 279 280 280 269 262 253 250 251 252 249 236 230 233 236 237 230 214 195 196 207 186 166 158 187 203 213 228 238 237 227 219 206 214 242 244 215 253 255 225 214 224 249 246 243 252 274 313 298 265 274 285 283 273 236 243 250 249 251 254 256 255 257 259 257 257 259 259 259 259
307 309 311 317 326 337 344 342 346 351 350 356 353 342 344 342 336 341 333 296 283 274 269 260 247 246 246 247 244 229 227 235 236 238 230 216 204 198 204 183 178 208 214 211 223 242 248 247 216 180 196 210 223 240 216 220 252 251 214 217 238 246 250 259 284 321 309 287 294 295 291 285 202 217 238 244 246 248 249 248 250 254 255 256 256 257 258 258
298 303 308 312 319 328 333 334 341 348 349 352 352 346 346 350 345 341 344 338 289 258 240 221 220 237 235 235 226 207 223 255 240 236 231 225 218 213 203 171 191 226 205 198 232 249 243 231 201 176 200 203 203 243 225 203 240 273 226 214 233 244 253 257 270 294 268 263 289 92 271 284 265 215 221 231 237 243 247 246 246 250 253 251 251 255 257 259
285 292 299 303 311 317 319 323 330 339 346 346 349 348 342 356 16 1 2 343 283 211 165 186 187 195 211 206 190 174 185 267 232 221 214 215 214 210 216 190 191 229 167 140 267 243 198 202 196 193 199 186 188 238 228 188 213 268 225 194 214 228 237 233 231 239 239 279 294 140 140 277 284 249 193 206 218 235 248 249 249 247 247 249 250 254 257 259
278 281 284 286 292 296 302 309 318 330 337 336 340 340 345 12 34 33 45 300 280 142 140 198 185 206 229 182 181 179 172 92 149 202 197 199 201 200 225 221 191 214 163 153 241 238 167 185 201 192 184 190 206 225 200 158 195 251 169 153 178 195 207 168 175 224 280 341 288 200 136 258 280 261 171 194 209 222 239 239 244 244 243 246 249 254 257 260
274 276 278 279 280 282 288 296 307 322 323 329 333 327 350 48 24 51 82 255 296 74 141 196 190 227 204 165 193 213 279 42 91 187 180 192 198 187 234 233 195 229 226 195 233 252 192 185 192 171 174 216 218 222 163 161 203 226 118 101 82 83 74 96 125 131 40 306 259 195 157 219 280 276 144 161 208 218 232 234 240 245 247 249 250 254 259 262
272 274 275 275 277 280 285 291 301 318 318 321 327 318 163 154 67 61 239 247 324 344 159 171 219 247 112 133 221 249 249 321 51 149 155 175 197 196 126 238 181 209 272 284 259 255 234 92 136 175 196 206 177 125 150 171 188 128 100 58 35 23 27 58 46 70 37 281 238 184 181 186 272 286 133 167 227 219 222 230 246 254 255 254 253 255 260 265
271 270 268 267 270 275 277 282 292 307 304 294 314 332 175 164 79 151 238 258 28 279 100 159 275 52 98 133 287 285 244 289 128 151 172 145 184 207 104 158 148 78 321 300 277 271 254 163 211 209 192 143 103 92 31 53 115 112 98 74 34 333 8 29 350 58 204 264 222 185 185 183 234 265 154 239 270 242 216 219 237 244 249 252 254 257 259 266
272 267 264 263 264 266 266 271 280 288 290 275 263 286 201 232 210 216 239 8 6 244 135 203 242 97 126 120 248 243 185 276 223 154 182 165 166 200 199 205 173 70 297 257 272 302 274 224 208 188 187 165 133 95 358 357 74 112 107 115 101 301 344 354 309 104 220 255 228 182 178 205 241 252 248 266 277 250 218 215 228 232 240 246 250 253 256 264
272 266 266 263 260 258 259 266 269 266 274 249 205 97 75 229 244 220 222 285 242 222 123 133 136 146 146 121 251 225 165 231 209 173 192 147 165 241 258 230 163 166 258 228 310 325 297 276 176 134 253 194 166 171 231 268 173 161 153 153 171 217 238 262 262 259 258 264 261 172 168 241 278 269 221 237 248 239 221 218 227 231 236 243 247 250 252 260
270 269 270 267 262 256 255 263 257 249 252 215 171 97 100 229 250 120 166 228 268 328 358 63 51 116 163 209 242 198 185 244 184 158 178 126 151 256 260 237 191 170 227 217 298 199 256 287 195 166 220 182 180 205 204 147 158 189 157 144 180 186 182 205 228 252 268 283 295 193 171 227 285 271 216 223 252 262 236 228 232 234 237 243 253 256 254 255
272 272 271 269 263 250 246 248 243 244 233 189 146 114 200 232 251 236 215 234 292 310 292 335 41 299 265 257 256 210 212 243 150 136 179 167 189 212 205 214 196 173 145 202 254 164 223 270 224 175 150 160 182 212 177 117 138 223 122 121 217 200 176 214 248 240 231 307 285 223 216 239 254 258 242 241 271 272 246 238 243 244 244 246 252 257 256 253
274 273 270 269 263 251 244 238 237 243 220 176 136 215 221 234 229 190 204 203 203 214 307 323 292 223 273 265 277 260 210 222 158 141 203 201 215 214 210 221 195 185 183 193 219 199 238 270 222 143 144 177 188 197 161 159 198 180 131 180 224 157 157 220 269 282 95 266 265 214 238 273 302 279 254 227 239 250 257 261 257 249 248 247 248 251 253 252
271 271 270 266 263 259 247 235 236 238 212 173 181 230 219 238 208 192 215 167 163 135 59 301 243 209 255 242 267 285 244 232 205 171 207 219 230 205 202 237 201 190 202 209 224 239 245 269 238 171 212 238 203 86 55 211 147 131 176 209 163 73 143 176 244 330 283 256 266 256 257 270 286 282 292 101 250 269 270 253 239 240 243 245 248 251 252 255
270 271 270 266 266 262 248 238 232 225 203 171 227 232 215 229 198 194 221 219 231 179 199 254 240 204 236 253 261 247 219 235 180 167 215 221 234 187 169 235 215 201 219 223 239 273 240 261 265 179 183 287 42 65 315 328 97 133 193 204 115 169 224 165 173 217 237 245 260 266 269 268 246 255 285 296 277 277 269 254 244 248 249 249 253 254 253 255
273 274 272 270 268 253 240 235 220 209 193 169 231 228 213 226 207 204 218 222 242 244 232 244 239 231 241 249 259 234 205 220 189 187 226 212 233 199 159 229 231 239 250 227 237 301 323 256 268 25 30 339 29 191 206 237 335 17 4 339 34 196 192 182 180 173 221 240 251 261 270 270 249 242 242 240 244 251 257 259 245 242 245 246 249 253 256 258
270 263 266 260 237 218 218 215 206 197 188 211 224 225 236 238 227 220 218 215 213 213 226 237 229 237 249 251 256 247 227 228 211 211 221 212 241 240 176 148 143 316 310 152 194 296 4 278 266 330 332 259 170 211 194 180 191 194 220 237 253 232 180 250 244 167 222 241 245 252 257 265 264 224 206 231 239 238 241 249 253 250 252 254 257 260 264 267
230 237 264 238 207 205 198 195 194 190 205 232 228 239 248 243 242 230 219 215 217 220 221 214 216 232 249 255 253 238 222 221 205 210 223 227 247 252 161 128 127 69 30 79 242 294 17 277 276 296 286 258 259 226 188 197 204 189 201 214 216 218 217 257 249 219 217 238 245 249 251 261 266 219 196 237 245 255 249 239 272 284 282 285 290 286 282 282
208 232 259 217 207 204 190 183 197 203 210 222 229 240 240 241 246 240 223 214 214 226 229 223 226 231 237 250 254 234 213 210 202 209 222 225 232 229 224 232 228 251 329 302 268 219 160 177 272 271 266 276 294 288 220 214 231 225 230 230 227 223 210 232 244 238 236 237 243 253 252 255 257 262 306 275 266 296 279 240 253 283 292 302 301 293 288 286
217 236 232 203 216 209 193 188 223 205 211 239 236 242 241 239 240 238 228 212 206 214 222 222 224 227 233 240 245 238 221 220 214 213 224 228 224 224 234 246 254 262 266 250 259 204 159 134 244 265 280 282 290 293 279 218 205 241 258 235 231 231 218 230 246 258 260 248 249 260 256 251 264 284 302 286 283 305 295 282 278 287 296 301 298 295 290 282
243 255 247 235 229 212 197 193 222 213 228 236 236 247 245 243 239 240 234 203 194 198 219 234 224 224 230 229 233 230 212 226 230 220 221 221 213 221 229 235 239 241 227 203 182 178 194 184 189 255 280 275 278 287 282 258 176 211 230 219 224 230 230 244 262 272 252 243 242 258 261 254 271 286 292 287 289 297 293 289 284 281 288 291 292 297 294 288
272 273 257 243 230 221 222 234 231 222 220 228 239 243 243 249 240 242 244 229 215 210 222 251 241 234 235 229 247 240 214 226 244 223 212 215 220 223 227 231 232 229 230 223 195 172 197 202 188 229 254 256 258 255 250 247 212 209 228 224 222 222 224 236 248 242 241 235 231 244 257 255 263 277 281 279 280 279 275 277 278 276 277 278 279 282 283 284
277 274 265 243 221 221 232 241 242 246 225 231 240 229 234 245 245 244 247 242 236 232 236 257 261 272 252 228 246 249 231 235 244 235 226 228 234 233 226 230 231 230 239 234 201 170 182 199 202 225 234 237 249 247 235 225 223 226 240 233 228 227 228 230 238 240 244 247 240 238 249 255 255 262 270 274 277 277 276 276 277 278 277 277 279 281 282 284
254 257 252 243 223 221 228 234 236 239 227 226 242 237 235 239 248 246 229 226 233 228 230 245 237 235 234 229 238 246 245 244 240 240 247 240 245 269 249 234 230 233 241 237 195 172 163 230 216 230 235 235 245 249 247 250 247 248 251 248 249 248 236 230 237 241 247 257 253 242 244 253 252 250 259 268 274 275 274 275 276 278 280 281 282 283 282 280
232 267 265 259 256 232 226 231 258 320 343 313 268 300 267 247 253 244 225 256 260 220 216 237 229 232 248 258 262 261 256 253 248 249 255 267 299 307 285 265 249 244 241 218 183 175 204 243 232 237 242 239 242 247 248 249 248 247 249 251 253 252 247 244 243 244 244 248 255 253 247 249 250 248 253 260 267 273 279 281 280 279 282 284 285 283 279 274
241 277 281 278 280 269 281 327 356 353 313 293 255 265 288 263 263 257 252 314 321 238 232 247 263 313 339 351 351 316 300 280 269 291 354 348 330 325 311 299 288 287 284 217 201 192 200 231 230 238 247 244 239 241 242 245 248 248 247 247 249 250 250 249 248 249 249 249 255 257 254 254 252 249 251 252 257 264 273 278 282 285 286 284 282 279 277 278
252 267 294 306 291 282 293 299 308 312 280 260 242 241 239 238 256 326 342 284 296 305 269 292 359 359 355 359 345 306 337 70 176 290 337 342 329 329 333 312 321 340 334 302 261 223 215 221 224 236 249 244 239 240 239 239 244 246 246 246 247 249 250 250 251 250 250 252 252 251 254 259 255 251 250 250 254 260 267 275 281 282 281 282 286 295 309 324
251 260 284 304 288 273 264 246 248 288 276 237 212 253 255 235 264 346 332 253 235 241 52 39 1 346 338 330 319 312 348 348 250 263 265 270 279 280 283 277 292 317 314 290 289 271 246 248 239 247 257 242 236 240 240 240 241 242 243 244 244 245 244 245 245 243 245 250 253 253 253 252 252 254 254 253 258 259 260 266 269 272 280 295 322 357 10 9
251 259 265 265 265 265 263 290 256 232 253 224 161 271 270 264 352 7 323 246 208 164 46 27 354 335 330 316 308 321 331 311 292 287 279 265 260 260 256 250 252 263 272 280 289 265 247 275 266 256 260 250 240 241 243 245 242 238 234 234 236 240 242 246 249 250 247 246 249 254 254 262 285 298 303 301 292 280 278 284 287 299 326 354 12 15 8 1
Height
1565 1565 1564 1564 1564 1563 1563 1562 1562 1561 1561 1561 1560 1559 1559 1558 1558 1557 1557 1556 1556 1555 1554 1554 1553 1552 1552 1551 1550 1550 1549 1548 1547 1546 1545 1545 1546 1546 1546 1546 1546 1546 1546 1546 1546 1546 1546 1546 1546 1546 1546 1546 1546 1546 1546 1546 1547 1548 1550 1553 1551 1551 1547 1539 1536 1534 1532 1531 1528 1527 1527 1527 1526 1525 1524 1523 1522 1521 1521 1520 1520 1520 1519 1518 1518 1518 1519 1519
1564 1564 1564 1564 1563 1563 1562 1562 1562 1561 1561 1560 1560 1559 1559 1558 1557 1557 1556 1556 1555 1555 1554 1553 1553 1552 1551 1551 1550 1549 1548 1547 1546 1545 1544 1544 1544 1544 1544 1545 1545 1545 1545 1546 1546 1546 1546 1546 1545 1546 1546 1546 1546 1546 1546 1546 1546 1547 1550 1552 1548 1545 1539 1533 1532 1530 1530 1530 1527 1527 1526 1526 1525 1524 1523 1522 1520 1520 1520 1518 1519 1519 1517 1517 1516 1517 1517 1517
1564 1564 1563 1563 1563 1562 1562 1561 1561 1561 1560 1560 1559 1559 1558 1558 1557 1557 1556 1555 1555 1554 1554 1553 1553 1552 1551 1550 1549 1548 1547 1546 1544 1544 1543 1543 1543 1543 1543 1543 1544 1544 1544 1545 1545 1545 1545 1545 1545 1545 1545 1545 1545 1545 1545 1545 1546 1545 1548 1549 1542 1537 1534 1531 1530 1529 1529 1528 1527 1527 1526 1525 1524 1523 1523 1521 1519 1518 1516 1515 1516 1516 1514 1514 1514 1514 1515 1515
1563 1563 1563 1562 1562 1562 1561 1561 1560 1560 1560 1559 1559 1558 1558 1557 1557 1556 1555 1555 1554 1554 1553 1552 1552 1551 1551 1550 1549 1548 1546 1545 1543 1543 1543 1542 1542 1542 1542 1542 1542 1543 1543 1544 1544 1545 1545 1544 1544 1544 1544 1544 1544 1545 1544 1544 1544 1543 1544 1543 1536 1534 1534 1529 1528 1528 1528 1528 1527 1526 1525 1524 1522 1522 1521 1519 1519 1515 1510 1511 1512 1512 1511 1512 1513 1512 1513 1513
1562 1562 1562 1562 1561 1561 1560 1560 1560 1559 1559 1558 1558 1557 1557 1556 1556 1555 1555 1554 1553 1553 1552 1552 1551 1550 1549 1549 1548 1547 1547 1546 1543 1542 1543 1542 1542 1541 1541 1541 1541 1541 1542 1542 1543 1543 1543 1543 1543 1543 1544 1543 1543 1543 1542 1541 1542 1541 1539 1536 1533 1534 1533 1527 1527 1528 1527 1527 1526 1525 1524 1522 1520 1520 1517 1518 1516 1507 1504 1508 1509 1509 1510 1510 1510 1510 1510 1510
1561 1561 1561 1561 1560 1560 1559 1559 1559 1558 1558 1557 1557 1556 1556 1555 1555 1554 1554 1553 1552 1552 1551 1551 1550 1549 1549 1548 1547 1546 1547 1546 1542 1542 1542 1541 1541 1540 1540 1540 1540 1541 1541 1541 1542 1542 1542 1543 1542 1542 1542 1541 1542 1541 1540 1539 1540 1540 1535 1533 1532 1533 1531 1526 1526 1526 1526 1526 1524 1524 1522 1520 1520 1517 1515 1514 1508 1500 1502 1507 1507 1507 1508 1508 1508 1507 1506 1506
1560 1560 1560 1559 1559 1559 1558 1558 1558 1557 1557 1556 1556 1555 1555 1554 1554 1553 1552 1552 1551 1551 1550 1549 1549 1548 1548 1547 1546 1545 1545 1544 1542 1542 1541 1541 1540 1540 1540 1539 1539 1539 1539 1540 1540 1541 1541 1541 1541 1541 1541 1540 1540 1538 1538 1538 1538 1538 1534 1531 1531 1530 1528 1525 1525 1525 1525 1524 1522 1523 1521 1519 1519 1516 1513 1507 1498 1498 1503 1504 1504 1505 1505 1505 1504 1504 1503 1503
1559 1559 1559 1558 1558 1557 1557 1557 1556 1556 1555 1555 1555 1554 1554 1553 1553 1552 1552 1551 1550 1550 1549 1548 1548 1547 1547 1545 1545 1544 1542 1542 1541 1541 1540 1540 1540 1539 1539 1539 1539 1538 1538 1539 1539 1540 1540 1539 1539 1540 1539 1539 1538 1536 1537 1537 1537 1536 1532 1530 1529 1528 1526 1524 1524 1522 1522 1522 1521 1522 1519 1517 1517 1516 1512 1498 1491 1496 1501 1501 1502 1502 1502 1502 1500 1500 1500 1500
1558 1558 1557 1557 1556 1556 1556 1555 1555 1554 1554 1553 1553 1553 1552 1552 1551 1551 1550 1549 1549 1548 1547 1547 1546 1546 1546 1544 1544 1542 1539 1539 1540 1540 1539 1539 1538 1538 1538 1537 1538 1537 1537 1537 1538 1538 1538 1538 1538 1538 1538 1537 1536 1535 1535 1536 1535 1532 1530 1529 1527 1525 1524 1523 1521 1519 1520 1519 1519 1520 1516 1514 1515 1517 1507 1489 1488 1494 1496 1496 1497 1498 1498 1497 1497 1496 1497 1496
1557 1556 1556 1555 1555 1554 1554 1553 1553 1552 1552 1552 1551 1551 1550 1550 1550 1549 1549 1548 1547 1546 1546 1546 1545 1545 1544 1543 1544 1540 1536 1538 1539 1538 1538 1537 1537 1536 1536 1536 1536 1536 1536 1536 1536 1536 1536 1537 1537 1537 1537 1536 1535 1534 1534 1535 1532 1529 1529 1528 1525 1524 1521 1520 1518 1516 1518 1517 1516 1517 1514 1511 1513 1517 1503 1484 1487 1493 1492 1493 1493 1494 1494 1493 1493 1493 1493 1493
1555 1554 1554 1554 1553 1553 1552 1551 1551 1550 1550 1549 1549 1549 1548 1548 1547 1547 1546 1546 1545 1544 1544 1544 1543 1543 1542 1542 1541 1537 1535 1537 1537 1536 1536 1535 1535 1535 1534 1534 1534 1534 1534 1534 1534 1534 1535 1536 1536 1536 1536 1535 1534 1533 1532 1531 1530 1529 1529 1526 1523 1523 1520 1516 1516 1514 1515 1515 1512 1514 1512 1509 1512 1513 1498 1483 1487 1491 1490 1491 1491 1491 1490 1490 1490 1490 1490 1489
1552 1552 1552 1551 1551 1551 1550 1549 1548 1548 1547 1547 1547 1546 1546 1545 1545 1544 1544 1543 1543 1542 1542 1542 1541 1541 1541 1539 1535 1533 1534 1535 1535 1534 1534 1534 1533 1532 1532 1532 1532 1532 1532 1532 1532 1532 1533 1534 1534 1535 1534 1534 1533 1532 1531 1529 1530 1529 1528 1528 1522 1523 1518 1509 1511 1512 1513 1512 1508 1512 1513 1508 1506 1501 1489 1484 1488 1489 1489 1488 1487 1488 1486 1487 1487 1486 1486 1484
1550 1550 1549 1549 1549 1548 1548 1547 1546 1546 1545 1545 1544 1544 1544 1543 1542 1542 1541 1541 1540 1540 1539 1539 1539 1539 1539 1535 1530 1531 1533 1532 1532 1532 1532 1531 1531 1530 1529 1529 1529 1530 1530 1530 1531 1531 1532 1532 1533 1533 1533 1533 1532 1531 1529 1528 1529 1527 1528 1529 1524 1526 1519 1503 1507 1510 1509 1510 1506 1512 1515 1504 1496 1490 1483 1485 1488 1488 1488 1485 1483 1483 1482 1483 1483 1482 1482 1481
1548 1548 1547 1547 1546 1546 1545 1544 1543 1543 1542 1542 1541 1542 1541 1540 1539 1538 1538 1538 1538 1537 1537 1537 1536 1537 1536 1531 1528 1529 1529 1529 1528 1528 1529 1529 1528 1527 1527 1527 1528 1528 1528 1528 1529 1529 1530 1531 1532 1532 1532 1532 1530 1529 1529 1529 1529 1528 1529 1529 1529 1532 1518 1500 1506 1509 1507 1508 1504 1510 1515 1502 1489 1484 1481 1484 1486 1486 1485 1482 1479 1479 1478 1479 1479 1478 1478 1477
1547 1546 1546 1545 1544 1543 1542 1542 1541 1540 1539 1539 1538 1538 1538 1537 1536 1535 1536 1535 1535 1534 1534 1534 1534 1534 1533 1528 1526 1526 1525 1525 1525 1525 1526 1525 1525 1524 1524 1525 1525 1525 1526 1526 1527 1527 1528 1530 1531 1531 1531 1530 1530 1530 1531 1530 1528 1529 1531 1529 1530 1531 1518 1503 1503 1505 1504 1504 1504 1508 1511 1500 1487 1480 1479 1481 1483 1483 1482 1479 1477 1476 1475 1475 1474 1474 1473 1472
1545 1545 1544 1543 1543 1541 1540 1540 1538 1538 1537 1535 1535 1535 1534 1533 1533 1532 1532 1532 1532 1532 1531 1531 1531 1532 1531 1526 1523 1523 1522 1521 1521 1522 1523 1522 1522 1522 1522 1523 1523 1523 1524 1524 1525 1526 1527 1529 1529 1530 1530 1529 1530 1530 1532 1534 1532 1530 1531 1529 1527 1527 1524 1513 1501 1498 1500 1501 1503 1504 1502 1495 1484 1478 1478 1479 1479 1478 1478 1476 1474 1473 1473 1472 1471 1469 1469 1469
1544 1544 1543 1542 1541 1540 1539 1538 1537 1535 1534 1533 1532 1531 1531 1530 1529 1529 1529 1529 1529 1528 1529 1529 1528 1530 1528 1523 1521 1519 1518 1518 1518 1519 1519 1520 1520 1520 1520 1520 1521 1521 1522 1523 1524 1524 1526 1528 1528 1529 1529 1528 1528 1530 1536 1541 1534 1528 1529 1529 1526 1523 1523 1517 1502 1495 1498 1499 1499 1499 1497 1490 1478 1475 1477 1477 1476 1475 1476 1473 1470 1470 1470 1469 1467 1465 1464 1464
1543 1543 1542 1541 1540 1539 1538 1537 1535 1534 1532 1531 1530 1528 1527 1526 1526 1526 1525 1525 1526 1527 1527 1526 1528 1530 1524 1518 1518 1517 1516 1517 1515 1516 1516 1517 1517 1518 1518 1519 1519 1520 1521 1522 1522 1523 1525 1526 1527 1529 1529 1527 1526 1528 1534 1532 1524 1521 1523 1524 1523 1520 1520 1518 1506 1496 1496 1498 1498 1498 1496 1488 1479 1475 1475 1475 1474 1473 1472 1470 1468 1467 1466 1464 1463 1462 1461 1460
1542 1541 1541 1540 1539 1538 1537 1535 1534 1532 1530 1529 1528 1527 1525 1524 1523 1522 1522 1522 1522 1523 1523 1521 1522 1524 1519 1514 1515 1515 1515 1515 1514 1514 1514 1514 1515 1516 1516 1517 1517 1518 1520 1521 1521 1521 1523 1525 1528 1530 1527 1521 1518 1521 1521 1514 1512 1514 1515 1516 1517 1516 1514 1511 1502 1494 1496 1498 1497 1496 1490 1484 1480 1475 1473 1472 1471 1470 1468 1466 1466 1464 1462 1460 1459 1458 1458 1456
1541 1540 1540 1539 1538 1537 1535 1534 1533 1531 1529 1527 1526 1525 1523 1523 1522 1520 1520 1519 1519 1518 1517 1515 1515 1514 1512 1512 1513 1513 1513 1512 1511 1511 1510 1511 1513 1514 1514 1515 1516 1517 1517 1518 1519 1519 1520 1523 1526 1524 1516 1509 1510 1514 1511 1507 1510 1513 1515 1516 1515 1515 1511 1503 1497 1493 1497 1497 1492 1490 1484 1478 1476 1471 1468 1469 1468 1466 1464 1463 1461 1459 1457 1455 1455 1453 1452 1450
1540 1540 1539 1538 1537 1536 1535 1534 1532 1530 1529 1526 1525 1524 1524 1525 1524 1522 1520 1517 1515 1514 1512 1512 1512 1510 1508 1510 1510 1510 1510 1509 1508 1507 1508 1510 1511 1512 1511 1512 1515 1516 1515 1516 1518 1518 1519 1522 1521 1511 1503 1504 1508 1510 1510 1511 1513 1514 1516 1516 1514 1515 1507 1497 1495 1493 1495 1497 1489 1485 1482 1475 1473 1468 1464 1466 1466 1461 1458 1458 1456 1452 1452 1451 1450 1448 1445 1444
1540 1539 1538 1538 1537 1536 1535 1533 1532 1530 1529 1527 1525 1525 1525 1525 1525 1524 1522 1517 1511 1510 1510 1508 1508 1505 1504 1506 1506 1507 1508 1505 1503 1503 1505 1507 1507 1507 1507 1509 1511 1511 1513 1516 1517 1518 1520 1519 1512 1503 1502 1507 1508 1509 1512 1513 1514 1515 1517 1518 1515 1512 1503 1493 1493 1491 1492 1495 1486 1482 1479 1470 1468 1465 1461 1461 1460 1455 1452 1452 1449 1447 1448 1447 1445 1443 1439 1438
1538 1537 1537 1536 1536 1536 1534 1533 1532 1530 1529 1527 1526 1525 1525 1524 1524 1523 1522 1519 1509 1505 1504 1502 1501 1499 1499 1500 1500 1503 1503 1499 1499 1499 1502 1504 1503 1504 1505 1506 1508 1509 1513 1513 1511 1513 1515 1511 1504 1502 1506 1509 1507 1509 1512 1513 1514 1514 1515 1517 1513 1508 1504 1496 1490 1488 1490 1491 1485 1482 1477 1467 1466 1463 1458 1456 1452 1448 1448 1447 1445 1443 1443 1441 1438 1437 1435 1433
1536 1536 1536 1535 1535 1535 1533 1533 1532 1530 1529 1527 1526 1525 1525 1524 1523 1522 1521 1518 1509 1501 1497 1496 1496 1494 1493 1494 1495 1497 1495 1494 1496 1496 1497 1499 1500 1503 1503 1503 1507 1510 1509 1507 1504 1503 1502 1500 1500 1502 1506 1507 1508 1509 1512 1513 1511 1508 1510 1513 1506 1500 1501 1497 1492 1490 1490 1489 1485 1485 1475 1458 1456 1458 1451 1449 1446 1444 1445 1443 1441 1439 1436 1435 1433 1432 1430 1427
1535 1535 1534 1533 1534 1533 1533 1533 1531 1530 1529 1527 1527 1525 1525 1524 1522 1522 1521 1518 1510 1499 1493 1491 1490 1489 1488 1490 1491 1492 1492 1492 1492 1492 1493 1495 1497 1500 1500 1501 1504 1504 1503 1503 1504 1501 1497 1497 1498 1501 1504 1506 1508 1508 1510 1511 1505 1500 1504 1503 1496 1494 1497 1496 1496 1497 1496 1491 1486 1489 1479 1449 1439 1448 1446 1442 1443 1441 1440 1439 1436 1433 1430 1430 1428 1424 1422 1420
1533 1533 1532 1532 1532 1532 1532 1531 1531 1530 1528 1527 1527 1524 1525 1523 1522 1522 1521 1521 1511 1496 1490 1489 1487 1486 1485 1487 1488 1491 1494 1490 1487 1489 1491 1492 1493 1496 1497 1499 1498 1497 1498 1501 1503 1499 1495 1494 1494 1498 1500 1502 1508 1509 1505 1505 1502 1498 1496 1493 1491 1494 1497 1497 1499 1501 1499 1493 1488 1491 1489 1461 1436 1438 1443 1440 1441 1438 1436 1436 1432 1428 1425 1423 1421 1418 1415 1414
1532 1531 1531 1530 1530 1530 1530 1530 1531 1529 1528 1528 1526 1525 1525 1522 1524 1522 1521 1523 1509 1488 1486 1487 1485 1485 1484 1485 1486 1489 1493 1487 1484 1487 1488 1489 1491 1493 1494 1494 1494 1493 1493 1499 1500 1494 1490 1491 1493 1495 1497 1501 1507 1503 1493 1497 1502 1496 1490 1488 1488 1491 1495 1496 1499 1501 1498 1493 1492 1489 1492 1484 1449 1429 1433 1434 1435 1437 1433 1431 1426 1422 1419 1416 1415 1413 1411 1409
1530 1530 1529 1529 1528 1528 1528 1529 1529 1529 1529 1528 1526 1526 1524 1523 1525 1522 1525 1528 1504 1481 1484 1484 1483 1484 1483 1485 1485 1485 1487 1484 1484 1486 1486 1488 1490 1491 1492 1489 1491 1492 1491 1496 1495 1487 1485 1488 1490 1491 1497 1500 1497 1489 1484 1492 1497 1489 1487 1489 1489 1490 1492 1495 1495 1499 1502 1499 1496 1488 1490 1494 1455 1420 1427 1430 1431 1436 1430 1424 1419 1415 1414 1411 1411 1409 1406 1406
1528 1528 1528 1527 1526 1526 1526 1527 1528 1528 1528 1527 1526 1526 1523 1525 1524 1521 1533 1531 1497 1479 1485 1483 1482 1484 1482 1485 1485 1484 1485 1484 1485 1486 1486 1488 1488 1490 1491 1488 1491 1492 1490 1491 1488 1484 1484 1485 1486 1488 1492 1490 1483 1481 1484 1488 1488 1486 1489 1489 1490 1493 1492 1496 1495 1496 1503 1497 1491 1488 1489 1490 1451 1414 1426 1435 1432 1433 1424 1418 1414 1410 1411 1410 1408 1406 1403 1404
1526 1525 1526 1525 1524 1524 1524 1525 1526 1527 1527 1527 1526 1524 1524 1524 1523 1528 1536 1520 1490 1483 1486 1483 1484 1485 1483 1485 1486 1485 1485 1485 1485 1486 1486 1488 1488 1489 1490 1489 1491 1491 1490 1490 1486 1483 1484 1485 1486 1484 1483 1479 1479 1484 1486 1486 1486 1486 1489 1488 1490 1494 1492 1498 1497 1496 1502 1490 1481 1480 1479 1485 1460 1421 1425 1432 1425 1423 1418 1416 1414 1410 1411 1408 1406 1404 1402 1402
1523 1523 1523 1522 1522 1523 1523 1524 1525 1525 1525 1526 1525 1525 1524 1523 1525 1533 1525 1500 1488 1488 1484 1484 1486 1485 1485 1488 1487 1486 1486 1485 1485 1486 1486 1488 1489 1489 1490 1490 1491 1493 1493 1491 1486 1483 1484 1485 1483 1478 1477 1477 1480 1484 1486 1488 1488 1487 1489 1488 1491 1495 1494 1499 1500 1502 1504 1485 1470 1471 1472 1480 1461 1425 1422 1423 1416 1417 1416 1415 1413 1409 1408 1405 1403 1402 1401 1400
1520 1520 1520 1519 1520 1520 1521 1522 1523 1524 1524 1524 1526 1525 1525 1527 1526 1520 1505 1491 1491 1488 1482 1485 1487 1485 1487 1488 1488 1486 1486 1486 1485 1486 1486 1489 1490 1489 1489 1488 1489 1493 1492 1489 1486 1482 1479 1478 1476 1474 1475 1476 1477 1482 1487 1489 1488 1489 1490 1492 1497 1502 1501 1502 1501 1501 1499 1478 1466 1472 1476 1471 1443 1418 1422 1420 1412 1415 1413 1411 1410 1407 1406 1403 1401 1401 1399 1398
1517 1516 1517 1516 1516 1517 1518 1519 1521 1522 1522 1523 1525 1524 1529 1534 1519 1502 1496 1493 1489 1483 1482 1486 1485 1486 1488 1487 1486 1484 1485 1485 1484 1485 1485 1488 1490 1488 1488 1488 1487 1489 1487 1487 1488 1482 1475 1471 1473 1476 1473 1471 1472 1478 1482 1481 1483 1487 1486 1488 1497 1503 1505 1505 1499 1495 1487 1470 1466 1475 1477 1460 1430 1414 1416 1411 1405 1407 1407 1407 1406 1404 1404 1401 1399 1399 1397 1396
1513 1513 1513 1513 1513 1514 1515 1517 1518 1520 1521 1522 1522 1525 1533 1530 1507 1494 1496 1494 1486 1482 1483 1485 1486 1487 1487 1485 1483 1482 1483 1482 1480 1484 1485 1487 1491 1488 1486 1486 1487 1487 1486 1489 1488 1484 1481 1470 1465 1468 1465 1464 1466 1466 1467 1470 1477 1480 1476 1479 1485 1486 1490 1492 1485 1477 1469 1462 1467 1478 1470 1447 1425 1411 1405 1402 1402 1403 1404 1404 1402 1401 1401 1399 1398 1397 1395 1393
1510 1510 1510 1509 1510 1511 1512 1514 1515 1517 1519 1518 1521 1526 1527 1515 1499 1495 1496 1491 1488 1486 1485 1485 1485 1487 1486 1484 1482 1479 1478 1478 1479 1483 1484 1485 1487 1483 1480 1480 1482 1484 1486 1489 1485 1483 1483 1466 1454 1458 1457 1457 1460 1457 1459 1466 1474 1477 1475 1477 1477 1472 1471 1473 1468 1463 1465 1466 1465 1467 1455 1432 1416 1406 1400 1404 1403 1401 1401 1400 1400 1400 1398 1398 1397 1394 1391 1389
1506 1506 1506 1505 1505 1508 1510 1511 1512 1514 1515 1516 1521 1522 1511 1497 1493 1494 1490 1486 1487 1487 1486 1486 1484 1485 1485 1482 1480 1478 1476 1477 1480 1481 1482 1484 1482 1479 1478 1475 1475 1477 1478 1480 1476 1474 1474 1461 1452 1458 1457 1456 1457 1455 1458 1461 1464 1472 1477 1473 1469 1466 1465 1468 1467 1463 1470 1471 1454 1445 1440 1426 1416 1403 1394 1400 1400 1397 1400 1399 1399 1400 1396 1395 1393 1389 1388 1386
1502 1502 1501 1500 1502 1505 1507 1508 1509 1511 1511 1513 1515 1508 1495 1488 1488 1487 1485 1484 1485 1484 1488 1490 1485 1482 1483 1481 1479 1478 1477 1477 1479 1478 1480 1482 1477 1473 1474 1470 1468 1469 1466 1467 1466 1463 1463 1457 1451 1456 1455 1455 1458 1457 1458 1458 1458 1466 1471 1464 1463 1467 1466 1469 1474 1469 1472 1471 1449 1435 1431 1427 1424 1409 1393 1396 1398 1396 1398 1397 1396 1394 1391 1391 1389 1387 1386 1384
1498 1498 1496 1494 1498 1502 1503 1504 1506 1506 1509 1510 1506 1496 1487 1485 1483 1482 1483 1483 1484 1484 1487 1490 1485 1479 1480 1482 1478 1476 1476 1477 1477 1477 1477 1477 1471 1465 1466 1465 1464 1465 1461 1462 1463 1461 1462 1460 1452 1452 1455 1456 1459 1459 1459 1459 1459 1460 1460 1458 1461 1467 1465 1467 1473 1470 1469 1467 1451 1433 1426 1422 1420 1408 1396 1398 1398 1394 1393 1392 1393 1392 1390 1390 1387 1385 1384 1383
1496 1496 1492 1490 1494 1497 1498 1500 1501 1503 1504 1504 1500 1491 1483 1481 1480 1480 1482 1482 1483 1485 1486 1486 1483 1479 1478 1479 1476 1475 1475 1475 1475 1476 1475 1474 1468 1461 1461 1462 1462 1464 1462 1465 1467 1463 1464 1465 1457 1454 1459 1460 1460 1460 1458 1458 1462 1462 1461 1461 1461 1461 1459 1459 1460 1457 1455 1456 1448 1437 1429 1415 1403 1397 1395 1396 1393 1390 1389 1388 1391 1390 1388 1387 1386 1384 1383 1382
1494 1493 1489 1487 1491 1493 1494 1496 1497 1498 1497 1494 1490 1485 1479 1479 1479 1479 1480 1481 1481 1482 1482 1481 1481 1480 1477 1474 1474 1474 1473 1472 1472 1473 1471 1468 1464 1460 1458 1460 1462 1463 1462 1464 1468 1466 1467 1468 1462 1459 1461 1460 1457 1456 1454 1454 1458 1461 1462 1463 1461 1459 1458 1457 1454 1447 1445 1446 1442 1440 1433 1411 1393 1392 1393 1390 1389 1389 1388 1387 1388 1388 1387 1386 1385 1385 1384 1384
1492 1491 1486 1485 1489 1490 1491 1493 1493 1492 1491 1487 1484 1481 1478 1479 1478 1477 1478 1478 1478 1478 1478 1478 1478 1478 1475 1472 1471 1470 1471 1470 1469 1469 1468 1464 1463 1462 1459 1459 1460 1462 1463 1464 1467 1468 1470 1471 1468 1464 1460 1456 1451 1450 1452 1451 1450 1453 1455 1453 1452 1452 1454 1457 1453 1442 1439 1439 1434 1434 1430 1410 1393 1392 1392 1390 1390 1390 1389 1389 1388 1388 1388 1387 1387 1387 1386 1386
1489 1488 1484 1483 1486 1486 1487 1489 1488 1487 1486 1482 1479 1478 1478 1477 1475 1475 1476 1476 1476 1476 1476 1476 1475 1475 1473 1471 1469 1468 1469 1469 1466 1466 1465 1462 1462 1461 1457 1457 1458 1459 1462 1465 1466 1467 1468 1471 1473 1470 1462 1456 1450 1447 1449 1450 1448 1449 1450 1447 1446 1447 1448 1450 1445 1437 1435 1434 1428 1427 1425 1410 1395 1391 1392 1392 1392 1392 1392 1391 1390 1389 1388 1387 1387 1387 1387 1387
1485 1483 1481 1482 1484 1483 1484 1484 1483 1482 1480 1477 1476 1476 1476 1476 1474 1474 1473 1474 1475 1475 1475 1474 1473 1472 1471 1469 1470 1469 1468 1466 1463 1462 1463 1461 1459 1456 1454 1455 1456 1457 1460 1463 1464 1464 1466 1469 1471 1469 1463 1458 1452 1446 1445 1447 1449 1449 1448 1446 1445 1444 1441 1440 1437 1434 1434 1431 1428 1428 1422 1409 1398 1393 1393 1393 1392 1392 1392 1391 1391 1389 1387 1387 1387 1386 1386 1386
1483 1481 1480 1481 1483 1482 1480 1478 1478 1477 1477 1475 1475 1475 1474 1474 1473 1471 1471 1471 1472 1472 1472 1470 1469 1469 1468 1467 1467 1467 1467 1466 1461 1457 1459 1459 1454 1450 1450 1451 1452 1455 1457 1457 1457 1459 1462 1466 1468 1469 1466 1460 1456 1451 1446 1445 1447 1446 1442 1440 1439 1438 1439 1438 1437 1438 1436 1432 1433 1431 1422 1411 1403 1397 1395 1393 1391 1392 1391 1390 1390 1389 1387 1387 1386 1385 1385 1384
1482 1480 1477 1477 1480 1480 1476 1473 1473 1473 1474 1474 1474 1473 1473 1472 1469 1467 1467 1468 1469 1469 1469 1467 1466 1466 1465 1465 1465 1464 1464 1464 1460 1455 1455 1455 1450 1445 1445 1447 1448 1450 1451 1450 1451 1452 1455 1457 1460 1465 1465 1459 1455 1449 1442 1440 1441 1441 1438 1434 1432 1432 1434 1434 1435 1437 1433 1427 1426 1425 1417 1410 1405 1400 1396 1391 1388 1388 1388 1387 1388 1388 1386 1385 1385 1384 1383 1381
1482 1480 1476 1475 1476 1476 1472 1471 1472 1472 1472 1473 1471 1470 1470 1468 1465 1465 1466 1466 1466 1466 1466 1465 1465 1465 1464 1464 1464 1463 1460 1460 1458 1455 1454 1452 1448 1444 1442 1443 1445 1445 1445 1447 1448 1450 1452 1452 1452 1453 1451 1447 1442 1437 1434 1435 1436 1436 1434 1430 1428 1428 1428 1429 1430 1427 1423 1420 1417 1414 1411 1408 1406 1404 1397 1388 1384 1383 1383 1383 1384 1384 1383 1383 1382 1381 1380 1379
1482 1479 1476 1475 1473 1471 1469 1469 1470 1471 1471 1471 1469 1466 1465 1464 1464 1464 1464 1463 1462 1463 1463 1463 1463 1463 1462 1460 1460 1458 1456 1455 1455 1453 1451 1449 1445 1443 1441 1442 1443 1441 1442 1445 1446 1449 1452 1450 1446 1444 1441 1438 1435 1431 1431 1433 1433 1433 1431 1430 1429 1427 1426 1428 1426 1420 1418 1419 1413 1407 1408 1408 1405 1403 1398 1389 1383 1378 1377 1379 1381 1379 1379 1379 1378 1378 1377 1376
1480 1477 1474 1474 1473 1470 1468 1469 1470 1471 1470 1470 1469 1466 1463 1463 1463 1463 1463 1461 1460 1461 1461 1461 1460 1459 1460 1460 1460 1458 1454 1452 1450 1449 1450 1452 1452 1450 1445 1442 1441 1442 1443 1444 1444 1446 1447 1443 1439 1438 1435 1434 1434 1432 1430 1430 1428 1428 1429 1428 1426 1425 1424 1424 1421 1416 1416 1415 1407 1403 1406 1405 1401 1400 1396 1390 1383 1377 1374 1375 1376 1375 1375 1375 1375 1374 1373 1370
1477 1475 1473 1473 1472 1470 1469 1470 1470 1471 1471 1471 1470 1467 1465 1464 1464 1463 1463 1461 1461 1460 1459 1459 1460 1462 1465 1465 1465 1465 1461 1458 1458 1457 1458 1463 1463 1459 1454 1448 1443 1443 1445 1445 1443 1441 1440 1437 1433 1432 1430 1428 1429 1427 1427 1427 1426 1425 1424 1423 1421 1420 1418 1417 1413 1411 1412 1408 1403 1402 1402 1397 1395 1394 1390 1384 1380 1377 1375 1372 1371 1370 1370 1370 1370 1369 1368 1367
1476 1475 1474 1473 1471 1469 1469 1470 1470 1470 1470 1469 1468 1466 1465 1464 1464 1463 1464 1464 1464 1461 1458 1461 1463 1465 1466 1465 1465 1467 1465 1466 1469 1467 1465 1467 1465 1462 1461 1456 1450 1448 1449 1449 1444 1440 1437 1431 1426 1426 1426 1422 1420 1420 1420 1422 1421 1419 1417 1415 1415 1415 1412 1410 1408 1407 1408 1403 1398 1399 1398 1392 1387 1384 1379 1376 1376 1377 1377 1375 1371 1367 1364 1364 1365 1367 1368 1369
1474 1474 1474 1474 1471 1468 1469 1469 1469 1470 1469 1467 1467 1466 1464 1463 1463 1464 1464 1462 1463 1462 1461 1463 1466 1464 1462 1462 1462 1463 1464 1466 1468 1466 1466 1467 1465 1462 1462 1459 1455 1454 1452 1450 1445 1442 1439 1432 1426 1427 1424 1416 1414 1415 1414 1415 1415 1413 1412 1411 1409 1407 1403 1400 1399 1398 1398 1396 1393 1394 1393 1385 1377 1372 1369 1371 1374 1375 1376 1375 1370 1366 1364 1366 1368 1370 1371 1371
1474 1473 1474 1474 1471 1467 1468 1469 1468 1469 1467 1464 1465 1466 1464 1463 1464 1466 1466 1461 1459 1461 1462 1463 1465 1463 1463 1462 1460 1461 1462 1462 1462 1461 1461 1461 1459 1458 1458 1455 1455 1456 1453 1450 1447 1443 1440 1435 1431 1429 1421 1411 1409 1409 1409 1411 1408 1402 1399 1398 1395 1393 1391 1390 1391 1390 1389 1389 1387 1385 1380 1376 1376 1377 1378 1379 1380 1378 1378 1377 1374 1372 1372 1373 1374 1374 1373 1372